Location: Newark
(44.2886°N, 4.8431°E)
Time: 22:54:19
(UTC+00:00)

ISS - Visible Passes

Search period start: 30 September 2020 00:00
Search period end: 10 October 2020 00:00
Orbit: 419 x 421 km, 51.6° (Epoch: 01 October)

Date Brightness Start Highest point End Pass type
(mag) Time Alt. Az. Time Alt. Az. Time Alt. Az.
30 Sep -2.2 18:16:01 10° NW 18:18:55 26° N 18:21:09 14° ENE visible
30 Sep -1.3 19:52:43 10° WNW 19:54:07 23° NW 19:54:07 23° NW visible
01 Oct -3.4 19:05:27 10° NW 19:08:40 53° NNE 19:08:40 53° NNE visible
02 Oct -3.0 18:18:12 10° NW 18:21:24 39° NNE 18:23:16 20° E visible
02 Oct -1.0 19:55:04 10° WNW 19:56:14 19° W 19:56:14 19° W visible
03 Oct -3.5 19:07:39 10° WNW 19:10:53 63° SW 19:10:53 63° SW visible
04 Oct -3.8 18:20:18 10° WNW 18:23:42 82° NNE 18:25:37 24° ESE visible
04 Oct -0.5 19:58:07 10° W 19:58:35 12° WSW 19:58:35 12° WSW visible
05 Oct -1.9 19:10:11 10° W 19:12:57 24° SW 19:13:24 23° SSW visible
06 Oct -2.5 18:22:34 10° WNW 18:25:44 38° SW 18:28:20 14° SSE visible
07 Oct -3.3 17:35:07 10° WNW 17:38:27 63° SW 17:41:47 10° SE visible
08 Oct -0.9 18:25:34 10° W 18:27:31 15° SW 18:29:27 10° SSW visible
09 Oct -1.4 17:37:34 10° W 17:40:19 23° SW 17:43:03 10° SSE visible
